RYR31KK LICJ-LIMJ

Flight info

Callsign RYR31KK
Flight time 1h 2m
Altitude 36000
Route LURON DCT RONAB DCT RUVIP DCT BETOT DCT POKAV DCT TINTO DCT VELAD DCT ELB DCT BETEN M729 IDONA
Aircraft B738/M-SDE2E3FGHIRWXY/LB1

Departure

Time 2026-04-28 13:54
Airport Falcone–Borsellino Airport (LICJ)

Arrival

Time 2026-04-28 14:56
Airport Genoa Cristoforo Colombo Airport (LIMJ)
Time Latitude Longitude Altitude Speed Heading
2026-04-28 13:11 38.18264 13.10040 64 ft 0 kts 247°
2026-04-28 13:49 38.18260 13.10028 61 ft 5 kts 247°
2026-04-28 13:49 38.18232 13.09993 58 ft 6 kts 212°
2026-04-28 13:49 38.18196 13.09960 64 ft 6 kts 216°
2026-04-28 13:50 38.18163 13.09924 64 ft 6 kts 220°
2026-04-28 13:50 38.18131 13.09890 58 ft 6 kts 220°
2026-04-28 13:50 38.18091 13.09871 64 ft 7 kts 184°
2026-04-28 13:50 38.18041 13.09841 59 ft 9 kts 231°
2026-04-28 13:51 38.18008 13.09756 57 ft 13 kts 246°
2026-04-28 13:51 38.17967 13.09637 59 ft 16 kts 245°
2026-04-28 13:51 38.17917 13.09486 66 ft 20 kts 248°
2026-04-28 13:51 38.17865 13.09326 64 ft 19 kts 248°
2026-04-28 13:52 38.17828 13.09225 65 ft 19 kts 245°
2026-04-28 13:52 38.17774 13.09064 66 ft 21 kts 248°
2026-04-28 13:52 38.17696 13.08917 57 ft 20 kts 218°
2026-04-28 13:52 38.17588 13.08811 66 ft 19 kts 217°
2026-04-28 13:53 38.17488 13.08799 69 ft 11 kts 96°
2026-04-28 13:53 38.17501 13.08859 69 ft 0 kts 65°
2026-04-28 13:53 38.17526 13.08929 68 ft 33 kts 66°
2026-04-28 13:53 38.17634 13.09250 71 ft 84 kts 66°
2026-04-28 13:54 38.17955 13.10203 64 ft 148 kts 66°
2026-04-28 13:54 38.18386 13.11487 615 ft 158 kts 66°
2026-04-28 13:54 38.18798 13.12788 1483 ft 160 kts 67°
2026-04-28 13:54 38.19192 13.14093 2299 ft 159 kts 67°
2026-04-28 13:55 38.19628 13.15478 2574 ft 183 kts 67°
2026-04-28 13:55 38.20176 13.17059 2796 ft 207 kts 65°
2026-04-28 13:55 38.20955 13.18696 2937 ft 229 kts 49°
2026-04-28 13:55 38.22147 13.20189 3140 ft 253 kts 34°
2026-04-28 13:56 38.23768 13.21184 3595 ft 264 kts 22°
2026-04-28 13:56 38.25486 13.22068 4229 ft 268 kts 22°
2026-04-28 13:56 38.27223 13.22969 4925 ft 271 kts 22°
2026-04-28 13:56 38.28976 13.23885 5587 ft 275 kts 22°
2026-04-28 13:57 38.30754 13.24822 6234 ft 279 kts 23°
2026-04-28 13:57 38.32539 13.25813 6952 ft 282 kts 23°
2026-04-28 13:57 38.34366 13.26773 7705 ft 284 kts 22°
2026-04-28 13:57 38.36208 13.27735 8378 ft 288 kts 22°
2026-04-28 13:58 38.38074 13.28720 9056 ft 292 kts 22°
2026-04-28 13:58 38.39958 13.29715 9765 ft 295 kts 20°
2026-04-28 13:58 38.41979 13.30154 10368 ft 301 kts 356°
2026-04-28 13:58 38.44087 13.29567 10566 ft 321 kts 341°
2026-04-28 13:59 38.46271 13.28645 10782 ft 340 kts 340°
2026-04-28 13:59 38.48539 13.27642 11295 ft 348 kts 339°
2026-04-28 13:59 38.50831 13.26629 12008 ft 349 kts 339°
2026-04-28 13:59 38.53129 13.25624 12759 ft 350 kts 339°
2026-04-28 14:00 38.55446 13.24621 13435 ft 354 kts 340°
2026-04-28 14:00 38.57795 13.23612 14080 ft 358 kts 340°
2026-04-28 14:00 38.60177 13.22593 14754 ft 362 kts 340°
2026-04-28 14:00 38.62573 13.21571 15440 ft 366 kts 340°
2026-04-28 14:01 38.64999 13.20536 16117 ft 369 kts 340°
2026-04-28 14:01 38.67447 13.19492 16753 ft 373 kts 340°
2026-04-28 14:01 38.69916 13.18439 17367 ft 377 kts 340°
2026-04-28 14:01 38.72417 13.17371 17986 ft 380 kts 340°
2026-04-28 14:02 38.74935 13.16295 18584 ft 384 kts 340°
2026-04-28 14:02 38.77441 13.15224 19179 ft 387 kts 340°
2026-04-28 14:02 38.80002 13.14128 19777 ft 389 kts 340°
2026-04-28 14:02 38.82580 13.13024 20346 ft 392 kts 340°
2026-04-28 14:03 38.85159 13.11858 20886 ft 394 kts 334°
2026-04-28 14:03 38.87439 13.09949 21403 ft 393 kts 317°
2026-04-28 14:03 38.89466 13.07581 21955 ft 394 kts 315°
2026-04-28 14:03 38.91470 13.05161 22433 ft 397 kts 315°
2026-04-28 14:04 38.93485 13.02708 22901 ft 401 kts 315°
2026-04-28 14:04 38.95516 13.00241 23397 ft 403 kts 315°
2026-04-28 14:04 38.97562 12.97768 23865 ft 405 kts 315°
2026-04-28 14:04 38.99627 12.95284 24318 ft 408 kts 315°
2026-04-28 14:05 39.01708 12.92788 24760 ft 410 kts 315°
2026-04-28 14:05 39.03802 12.90281 25205 ft 412 kts 315°
2026-04-28 14:05 39.05902 12.87767 25605 ft 414 kts 315°
2026-04-28 14:05 39.08018 12.85235 26009 ft 417 kts 315°
2026-04-28 14:06 39.10146 12.82686 26414 ft 418 kts 315°
2026-04-28 14:06 39.12280 12.80127 26793 ft 420 kts 315°
2026-04-28 14:06 39.14426 12.77553 27143 ft 423 kts 315°
2026-04-28 14:06 39.16586 12.74959 27498 ft 425 kts 315°
2026-04-28 14:07 39.18752 12.72355 27869 ft 427 kts 315°
2026-04-28 14:07 39.20926 12.69740 28186 ft 429 kts 315°
2026-04-28 14:07 39.23109 12.67111 28508 ft 431 kts 315°
2026-04-28 14:07 39.25306 12.64463 28805 ft 433 kts 315°
2026-04-28 14:08 39.27512 12.61801 29124 ft 435 kts 315°
2026-04-28 14:08 39.29727 12.59127 29427 ft 437 kts 315°
2026-04-28 14:08 39.31943 12.56449 29771 ft 437 kts 315°
2026-04-28 14:08 39.34163 12.53766 30175 ft 435 kts 315°
2026-04-28 14:09 39.36364 12.51102 30602 ft 433 kts 315°
2026-04-28 14:09 39.38557 12.48443 31018 ft 431 kts 315°
2026-04-28 14:09 39.40742 12.45793 31367 ft 431 kts 315°
2026-04-28 14:09 39.42926 12.43142 31715 ft 430 kts 315°
2026-04-28 14:10 39.45107 12.40493 32120 ft 428 kts 315°
2026-04-28 14:10 39.47240 12.37898 32492 ft 426 kts 315°
2026-04-28 14:10 39.49399 12.35268 32841 ft 425 kts 315°
2026-04-28 14:10 39.51548 12.32648 33148 ft 424 kts 315°
2026-04-28 14:11 39.53693 12.30029 33466 ft 423 kts 315°
2026-04-28 14:11 39.55834 12.27415 33799 ft 422 kts 315°
2026-04-28 14:11 39.57969 12.24807 34115 ft 421 kts 315°
2026-04-28 14:11 39.60096 12.22208 34413 ft 420 kts 315°
2026-04-28 14:12 39.62222 12.19605 34683 ft 420 kts 315°
2026-04-28 14:12 39.64341 12.17009 34970 ft 419 kts 315°
2026-04-28 14:12 39.66454 12.14417 35245 ft 418 kts 315°
2026-04-28 14:12 39.68568 12.11822 35506 ft 417 kts 315°
2026-04-28 14:13 39.70673 12.09238 35759 ft 417 kts 315°
2026-04-28 14:13 39.72780 12.06645 35996 ft 417 kts 315°
2026-04-28 14:13 39.77016 12.01429 36050 ft 421 kts 315°
2026-04-28 14:14 39.81257 11.96201 36036 ft 417 kts 315°
2026-04-28 14:14 39.85482 11.91085 36035 ft 415 kts 320°
2026-04-28 14:15 39.90460 11.87255 36050 ft 420 kts 336°
2026-04-28 14:15 39.95939 11.84597 36036 ft 420 kts 337°
2026-04-28 14:16 40.01422 11.81937 36051 ft 421 kts 336°
2026-04-28 14:16 40.06898 11.79207 36050 ft 421 kts 336°
2026-04-28 14:17 40.12379 11.76451 36048 ft 422 kts 336°
2026-04-28 14:17 40.17865 11.73686 36039 ft 423 kts 336°
2026-04-28 14:18 40.23356 11.70915 36040 ft 423 kts 336°
2026-04-28 14:18 40.28849 11.68140 36047 ft 423 kts 336°
2026-04-28 14:19 40.34346 11.65359 36046 ft 424 kts 336°
2026-04-28 14:19 40.39843 11.62571 36054 ft 424 kts 336°
2026-04-28 14:20 40.45308 11.59797 36045 ft 424 kts 336°
2026-04-28 14:20 40.50808 11.56998 36037 ft 424 kts 336°
2026-04-28 14:21 40.56301 11.54198 36036 ft 423 kts 336°
2026-04-28 14:21 40.61782 11.51400 36048 ft 423 kts 336°
2026-04-28 14:22 40.67270 11.48592 36044 ft 423 kts 336°
2026-04-28 14:22 40.72748 11.45784 36035 ft 422 kts 336°
2026-04-28 14:23 40.78225 11.42972 36036 ft 422 kts 336°
2026-04-28 14:23 40.83671 11.40172 36036 ft 422 kts 336°
2026-04-28 14:24 40.89961 11.36931 36037 ft 421 kts 336°
2026-04-28 14:24 41.00874 11.31291 36045 ft 421 kts 336°
2026-04-28 14:25 41.11805 11.25621 36046 ft 421 kts 336°
2026-04-28 14:25 41.22736 11.19930 36044 ft 422 kts 336°
2026-04-28 14:26 41.33656 11.14223 36053 ft 422 kts 336°
2026-04-28 14:26 41.44591 11.08488 36057 ft 422 kts 336°
2026-04-28 14:27 41.54104 11.03491 36055 ft 422 kts 336°
2026-04-28 14:27 41.64965 10.97773 36045 ft 423 kts 336°
2026-04-28 14:28 41.75913 10.91987 36055 ft 423 kts 336°
2026-04-28 14:28 41.86853 10.86183 36058 ft 423 kts 336°
2026-04-28 14:29 41.97818 10.80344 36065 ft 423 kts 336°
2026-04-28 14:29 42.07067 10.75404 36069 ft 423 kts 336°
2026-04-28 14:30 42.17557 10.69771 36068 ft 423 kts 335°
2026-04-28 14:30 42.28478 10.63884 36065 ft 422 kts 335°
2026-04-28 14:31 42.39356 10.58001 36052 ft 417 kts 335°
2026-04-28 14:31 42.49937 10.52256 35498 ft 402 kts 335°
2026-04-28 14:32 42.55077 10.49458 34737 ft 395 kts 335°
2026-04-28 14:32 42.60140 10.46696 33981 ft 389 kts 335°
2026-04-28 14:32 42.65128 10.43969 33235 ft 383 kts 335°
2026-04-28 14:32 42.70041 10.41280 32502 ft 378 kts 335°
2026-04-28 14:33 42.73372 10.39412 31989 ft 374 kts 331°
2026-04-28 14:33 42.76414 10.37212 31524 ft 369 kts 329°
2026-04-28 14:33 42.80867 10.33817 30805 ft 365 kts 328°
2026-04-28 14:33 42.85271 10.30453 30087 ft 360 kts 328°
2026-04-28 14:34 42.93908 10.23894 28653 ft 350 kts 328°
2026-04-28 14:34 42.98140 10.20683 27933 ft 346 kts 328°
2026-04-28 14:34 43.00920 10.18571 27457 ft 343 kts 328°
2026-04-28 14:35 43.06401 10.14401 26530 ft 338 kts 328°
2026-04-28 14:35 43.09453 10.12074 26012 ft 335 kts 328°
2026-04-28 14:35 43.11448 10.10552 25674 ft 332 kts 328°
2026-04-28 14:35 43.13462 10.09014 25339 ft 330 kts 328°
2026-04-28 14:36 43.15458 10.07489 24999 ft 328 kts 328°
2026-04-28 14:36 43.17446 10.05969 24670 ft 326 kts 328°
2026-04-28 14:36 43.19418 10.04460 24334 ft 324 kts 328°
2026-04-28 14:36 43.21381 10.02957 24001 ft 322 kts 328°
2026-04-28 14:37 43.23335 10.01460 23670 ft 321 kts 328°
2026-04-28 14:37 43.25280 9.99968 23340 ft 319 kts 328°
2026-04-28 14:37 43.27212 9.98485 23011 ft 317 kts 327°
2026-04-28 14:37 43.29135 9.97008 22687 ft 316 kts 327°
2026-04-28 14:38 43.31045 9.95541 22365 ft 314 kts 327°
2026-04-28 14:38 43.32950 9.94076 22048 ft 314 kts 327°
2026-04-28 14:38 43.34862 9.92603 21729 ft 315 kts 327°
2026-04-28 14:38 43.37184 9.90813 21353 ft 321 kts 327°
2026-04-28 14:39 43.41135 9.87763 20703 ft 327 kts 328°
2026-04-28 14:39 43.45079 9.84719 20011 ft 324 kts 327°
2026-04-28 14:39 43.48933 9.81739 19346 ft 320 kts 327°
2026-04-28 14:39 43.52791 9.78750 18685 ft 316 kts 328°
2026-04-28 14:40 43.55420 9.76711 18242 ft 313 kts 328°
2026-04-28 14:40 43.56701 9.75719 18024 ft 312 kts 328°
2026-04-28 14:40 43.62936 9.70897 16960 ft 307 kts 328°
2026-04-28 14:40 43.66641 9.68024 16344 ft 303 kts 328°
2026-04-28 14:41 43.70302 9.65181 15725 ft 300 kts 328°
2026-04-28 14:41 43.73917 9.62370 15103 ft 297 kts 328°
2026-04-28 14:41 43.77016 9.59959 14579 ft 295 kts 328°
2026-04-28 14:41 43.79941 9.57674 13888 ft 300 kts 329°
2026-04-28 14:42 43.83570 9.54833 13194 ft 299 kts 329°
2026-04-28 14:42 43.86602 9.52456 12654 ft 297 kts 329°
2026-04-28 14:42 43.88398 9.51047 12326 ft 297 kts 329°
2026-04-28 14:42 43.89587 9.50113 12106 ft 296 kts 329°
2026-04-28 14:43 43.91402 9.48688 11786 ft 295 kts 329°
2026-04-28 14:43 43.93182 9.47289 11459 ft 294 kts 329°
2026-04-28 14:43 43.94971 9.45882 11074 ft 296 kts 329°
2026-04-28 14:43 43.96760 9.44474 10771 ft 294 kts 329°
2026-04-28 14:44 43.98478 9.42951 10457 ft 291 kts 316°
2026-04-28 14:44 43.99700 9.40804 10230 ft 286 kts 303°
2026-04-28 14:44 44.00813 9.38518 9974 ft 285 kts 303°
2026-04-28 14:44 44.01923 9.36245 9723 ft 283 kts 303°
2026-04-28 14:45 44.03042 9.33993 9471 ft 282 kts 306°
2026-04-28 14:45 44.04455 9.32124 9209 ft 280 kts 322°
2026-04-28 14:45 44.06014 9.30570 8937 ft 272 kts 330°
2026-04-28 14:45 44.07785 9.29823 8661 ft 264 kts 358°
2026-04-28 14:46 44.09554 9.30227 8406 ft 255 kts 23°
2026-04-28 14:46 44.11024 9.31505 8149 ft 246 kts 45°
2026-04-28 14:46 44.12130 9.33280 7916 ft 242 kts 53°
2026-04-28 14:46 44.13147 9.35162 7665 ft 242 kts 54°
2026-04-28 14:47 44.14403 9.36685 7381 ft 243 kts 21°
2026-04-28 14:47 44.16045 9.36934 7139 ft 239 kts 347°
2026-04-28 14:47 44.17536 9.36021 6904 ft 232 kts 325°
2026-04-28 14:47 44.18832 9.34694 6663 ft 232 kts 321°
2026-04-28 14:48 44.20113 9.33306 6421 ft 234 kts 321°
2026-04-28 14:48 44.21407 9.31912 6185 ft 236 kts 321°
2026-04-28 14:48 44.22701 9.30516 6078 ft 237 kts 322°
2026-04-28 14:48 44.24009 9.29120 6053 ft 235 kts 322°
2026-04-28 14:49 44.25270 9.27780 6036 ft 226 kts 322°
2026-04-28 14:49 44.26518 9.26458 6053 ft 228 kts 322°
2026-04-28 14:49 44.27794 9.25105 6059 ft 234 kts 322°
2026-04-28 14:49 44.29079 9.23745 6006 ft 227 kts 322°
2026-04-28 14:50 44.30313 9.22439 5737 ft 218 kts 322°
2026-04-28 14:50 44.31499 9.21187 5474 ft 209 kts 322°
2026-04-28 14:50 44.32644 9.19973 5247 ft 205 kts 321°
2026-04-28 14:50 44.33508 9.18430 5002 ft 204 kts 291°
2026-04-28 14:51 44.34050 9.16576 4717 ft 209 kts 292°
2026-04-28 14:51 44.34576 9.14684 4430 ft 210 kts 288°
2026-04-28 14:51 44.35030 9.12759 4145 ft 207 kts 287°
2026-04-28 14:51 44.35451 9.10840 3841 ft 206 kts 286°
2026-04-28 14:52 44.35862 9.08934 3562 ft 204 kts 286°
2026-04-28 14:52 44.36270 9.07057 3276 ft 199 kts 286°
2026-04-28 14:52 44.36662 9.05238 3014 ft 192 kts 286°
2026-04-28 14:52 44.37040 9.03492 2739 ft 182 kts 286°
2026-04-28 14:53 44.37395 9.01863 2502 ft 169 kts 286°
2026-04-28 14:53 44.37720 9.00357 2308 ft 155 kts 285°
2026-04-28 14:53 44.38029 8.98937 2075 ft 148 kts 285°
2026-04-28 14:53 44.38330 8.97553 1852 ft 149 kts 285°
2026-04-28 14:54 44.38633 8.96159 1641 ft 150 kts 285°
2026-04-28 14:54 44.38935 8.94769 1430 ft 149 kts 285°
2026-04-28 14:54 44.39235 8.93387 1224 ft 149 kts 285°
2026-04-28 14:54 44.39538 8.92012 1014 ft 147 kts 285°
2026-04-28 14:55 44.39830 8.90642 810 ft 147 kts 285°
2026-04-28 14:55 44.40132 8.89281 620 ft 146 kts 285°
2026-04-28 14:55 44.40425 8.87935 400 ft 147 kts 286°
2026-04-28 14:55 44.40716 8.86579 174 ft 145 kts 285°
2026-04-28 14:56 44.40990 8.85223 27 ft 137 kts 284°
2026-04-28 14:56 44.41205 8.84122 20 ft 92 kts 285°
2026-04-28 14:56 44.41315 8.83554 18 ft 29 kts 287°
2026-04-28 14:56 44.41370 8.83307 19 ft 26 kts 287°
2026-04-28 14:57 44.41446 8.83125 19 ft 17 kts 315°
2026-04-28 14:57 44.41519 8.83097 18 ft 17 kts 14°
2026-04-28 14:57 44.41535 8.83279 18 ft 16 kts 104°
2026-04-28 14:57 44.41508 8.83424 18 ft 15 kts 108°
2026-04-28 14:58 44.41476 8.83560 18 ft 14 kts 108°
2026-04-28 14:58 44.41446 8.83692 18 ft 14 kts 105°
2026-04-28 14:58 44.41424 8.83819 18 ft 13 kts 104°
2026-04-28 14:58 44.41399 8.83948 18 ft 15 kts 105°
2026-04-28 14:59 44.41372 8.84087 18 ft 14 kts 105°
2026-04-28 14:59 44.41346 8.84219 19 ft 14 kts 105°
2026-04-28 14:59 44.41320 8.84352 19 ft 14 kts 100°
2026-04-28 14:59 44.41353 8.84472 19 ft 13 kts 50°
2026-04-28 15:00 44.41409 8.84574 19 ft 13 kts 63°
2026-04-28 15:00 44.41403 8.84695 19 ft 13 kts 105°
2026-04-28 15:00 44.41388 8.84813 19 ft 12 kts 71°
2026-04-28 15:00 44.41424 8.84908 19 ft 6 kts 62°
2026-04-28 15:01 44.41432 8.84929 19 ft 0 kts 61°